sat.trackr.live / text

‹ back to catalog

STARLINK-36859

NORAD 68710 · 2026-081M

PAYLOAD ACTIVE UNKNOWN

§ Identity

Operator
Country
US
Launch date
2026-04-14
Launch site
AFETR
Launch vehicle
Mass (kg)
RCS (m²)

Purposes: comms

External: N2YO · Heavens-Above · Gunter

§ Orbital elements

Epoch: 2026-05-25T01:57:16.369344Z

Period
92.95 min
Inclination
53.1593°
Eccentricity
0.0000263
Mean motion
15.49136748 rev/d
Perigee alt
419.1 km
Apogee alt
419.4 km
Semi-major
6,797.4 km
B*
-9.4431e-4
RAAN
39.6259°
Arg perigee
95.2382°
Mean anomaly
264.8657°
Rev number
643

§ Raw data

STARLINK-368591 68710U 26081M   26145.08143946 -.00052297  00000+0 -94431-3 0  99922 68710  53.1593  39.6259 0000263  95.2382 264.8657 15.49136748  6433

JSON: /api/v1/satellites/68710 · /tle

For live sub-satellite position, see the globe view (requires WebGL).

§ Visibility from observer

Set your observer location to see the next 7 days of passes ≥ 10°. The values pass through the URL so the page stays shareable.

No JS? Fill the form by hand. The geolocation button needs JavaScript.